Airfield :
LOGIN :

Register | Disclaimer

   EN    FR    IT 

 










Legend :    VFR   Marginal VFR   IFR   Intensive IFR   Very Intensive IFR
Visi :
Ceiling :
>= 8 km
>= 3000ft
5 to 8 km
1000 to 3000 ft
1500m to 5 km
500 to 1000 ft
800 to 1500m
200 to 500 ft
< 800m
< 200 ft
Symbols :   Thunderstorms  Fog  Heavy snow  Heavy precipitations  Wind > 20 kt
SIGMETs :     Misc.  Thunderstorms  Icing  Turbulence  Mountain Waves  Volcanic Ashes







- Airport Elevation : 238 ft
- IATA code : FAB
- Download approach charts


EGLF - Farnborough

CURRENT METAR :
  • 210920Z VRB04KT 9999 SCT023 22/15 Q1014

EXPIRED METARs :
  • 210850Z VRB02KT 9999 FEW013 20/15 Q1014
  • 210820Z VRB02KT 8000 FEW008 19/16 Q1014
  • 210750Z 00000KT 4000 HZ SCT005 17/16 Q1014
  • 210720Z VRB02KT 3000 HZ BKN004 17/16 Q1014
  • 210650Z VRB03KT 2500 BR BKN003 16/16 Q1014

TAF TAF EGLF
Valid from the 21 at 09:00 until the 21 at 18:00 UTC


210759Z 2109/2118 VRB04KT 9999 SCT020
ATIS : +44 09063 800 400 (*282)
No reported NOTAMs for that airfield.



MET'MAP, your aeronautical weather chart ! - Copyright ORBIFLY December 2007 - Disclaimer

ORBIFLY MET'MAP TEAM :

Programming & Development : Alexandra Zaïnal
Concept & Development : Baudouin d'Aumeries
Co-Development & Prog : Marc-Olivier Méhu
Technical & hardware support : Manuel Goepfert

Contact : metmap@orbifly.com




SOURCES & CREDITS :

   NOAA